Regional Weather Roundup
Issued by NWS

Home | Current Version | Previous Version | Text Only | Print | Product List | Glossary On
Versions: 1 2 3 4 5 6 7 8 9 10 11 12 13 14 15 16 17 18 19 20 21 22 23 24 25 26 27 28 29 30 31 32 33 34 35 36 37 38 39 40 41 42 43 44 45 46 47 48 49 50
140
ASUS43 KIND 250609
RWRIN

WEATHER ROUNDUP FOR INDIANA
NATIONAL WEATHER SERVICE INDIANAPOLIS IN
100 AM EST SUN FEB 25 2018

NOTE: "FAIR" INDICATES FEW OR NO CLOUDS BELOW 12,000 FEET WITH NO
SIGNIFICANT WEATHER AND/OR OBSTRUCTIONS TO VISIBILITY.

* - STATION DOES NOT REPORT WEATHER SUCH AS PRECIPITATION OR FOG.

+ - STATION NOT QUALITY CONTROLLED BY THE NATIONAL WEATHER SERVICE.
    USE DATA WITH CAUTION...ESPECIALLY DEWPOINT AND RELATIVE
    HUMIDITY OBSERVATIONS.

INZ001>003-010>013-019-020-250700-
NORTHWEST INDIANA

CITY           SKY/WX    TMP DP  RH WIND       PRES   REMARKS
GARY /AIRPORT/ LGT RAIN  49  48  97 SE14G21   29.45F
LA PORTE +     LGT RAIN  45  45  98 SE13      29.49F
6HR MIN TEMP:  41; 6HR MAX TEMP:  45; 6HR PCP:  0.02;

MICHIGAN CITY+ DRIZZLE   45  45 100 SE9G20    29.47F
MONTICELLO +   CLOUDY    54  52  95 S15G22    29.51F
6HR MIN TEMP:  46; 6HR MAX TEMP:  52; 6HR PCP:  0.01;

RENSSELAER +   LGT RAIN  52  48  87 S18       29.50F
VALPARAISO     LGT RAIN  48  47  96 SE10      29.47F FOG
6HR MIN TEMP:  44; 6HR MAX TEMP:  48; 6HR PCP:  0.01;


$$

LMZ046-743>745-250700-
SOUTHERN LAKE MICHIGAN

STATION/POSITION TIME  TEMP    WIND        PRES    WAVE
                       AIR SEA DIR/SP/G            HT
                 (UTC) (F)     (DEG/KT/KT) (MB)    (FT)
BURNS HARBOR     0540   47     150/ 16/ 24  998.0F
MICHIGAN CITY    0540   45     130/ 16/ 18   N/A

$$

INZ004-005-014>016-021>024-250700-
NORTH CENTRAL INDIANA

CITY           SKY/WX    TMP DP  RH WIND       PRES   REMARKS
GOSHEN         CLOUDY    44  42  93 SE14G23   29.53F FOG
6HR MIN TEMP:  39; 6HR MAX TEMP:  44; 6HR PCP:  0.04;

LOGANSPORT +   CLOUDY    52  52 100 S16       29.54F
PERU/GRISSOM   CLOUDY    54  54 100 S14G21    29.54F
6HR MIN TEMP:  46; 6HR MAX TEMP:  53; 6HR PCP:  0.06;

ROCHESTER +    CLOUDY    50  50 100 SE10G17   29.53F
SOUTH BEND     CLOUDY    43  42  97 SE14      29.51F
6HR MIN TEMP:  38; 6HR MAX TEMP:  43; 6HR PCP: TRACE;

WARSAW +       CLOUDY    43  43 100 N7G16     29.53F FOG

$$

INZ006>009-017-018-025>027-250700-
NORTHEAST INDIANA

CITY           SKY/WX    TMP DP  RH WIND       PRES   REMARKS
AUBURN +       FOG       41  41 100 E7        29.58F VSB 1
FORT WAYNE     CLOUDY    50  49  96 SE6       29.56F
6HR MIN TEMP:  41; 6HR MAX TEMP:  50; 6HR PCP:  0.20;

HUNTINGTON +   CLOUDY    49  48  97 S3        29.55F
6HR MIN TEMP:  41; 6HR MAX TEMP:  49; 6HR PCP:  0.14;

KENDALLVILLE + FOG       40  40 100 SE12      29.56F VSB 1/2 WCI  33

$$

INZ028-029-035-036-043>045-051>053-250700-
WEST CENTRAL INDIANA

CITY           SKY/WX    TMP DP  RH WIND       PRES   REMARKS
CRAWFORDSVL +  LGT RAIN  55  55 100 SW21G28     N/A
6HR MIN TEMP:  48; 6HR MAX TEMP:  55; 6HR PCP:  0.23;

GREENCASTLE +  CLOUDY    55  55 100 SW9G16    29.62R FOG
LAFAYETTE      LGT RAIN  55  55 100 SW13G24   29.53S FOG
6HR MIN TEMP:  49; 6HR MAX TEMP:  55; 6HR PCP:  0.02;

TERRE HAUTE    CLOUDY    59  56  89 SW22G31   29.63R
6HR MIN TEMP:  53; 6HR MAX TEMP:  60; 6HR PCP:  0.30;


$$

INZ030>032-037>040-046>048-054>057-064-065-250700-
CENTRAL INDIANA

CITY           SKY/WX    TMP DP  RH WIND       PRES   REMARKS
FRANKFORT +    LGT RAIN  57  56  94 SW15G21   29.58R
6HR MIN TEMP:  51; 6HR MAX TEMP:  57; 6HR PCP:  0.09;

GREENWOOD *+   CLOUDY    53 -39   2 S13G20    29.64R
INDIANAPOLIS   CLOUDY    56  55  97 S18       29.62R
6HR MIN TEMP:  50; 6HR MAX TEMP:  56; 6HR PCP:  0.60;

-EAGLE CREEK   CLOUDY    57  54  89 S13G20    29.60R
6HR MIN TEMP:  51; 6HR MAX TEMP:  56; 6HR PCP:  0.53;

KOKOMO +       LGT RAIN  55  53  93 S20       29.57S
6HR MIN TEMP:  46; 6HR MAX TEMP:  55; 6HR PCP:  0.13;

MARION +       CLOUDY    53  53  99 S16G22    29.58R
MT COMFORT *+  CLOUDY    55  55 100 S13       29.62R
SHELBYVILLE    LGT RAIN  56  53  90 S18G28    29.64R
6HR MIN TEMP:  51; 6HR MAX TEMP:  57; 6HR PCP:  0.91;

ZIONSVILLE +   DRIZZLE   54  54 100 S17       29.60R
6HR MIN TEMP:  48; 6HR MAX TEMP:  54; 6HR PCP:  0.60;


$$

INZ033-034-041-042-049-050-058-059-250700-
EAST CENTRAL INDIANA

CITY           SKY/WX    TMP DP  RH WIND       PRES   REMARKS
MUNCIE         MOCLDY    58  53  84 S13G24    29.58R
6HR MIN TEMP:  50; 6HR MAX TEMP:  58; 6HR PCP:  0.54;

RICHMOND +     MOCLDY    50  50 100 SE12      29.65R

$$

INZ060-061-067>069-081>083-085>088-250700-
SOUTHWEST INDIANA

CITY           SKY/WX    TMP DP  RH WIND       PRES   REMARKS
EVANSVILLE     CLOUDY    61  59  93 SW15      29.73R
6HR MIN TEMP:  57; 6HR MAX TEMP:  62; 6HR PCP:  1.71;

HUNTINGBURG +  LGT RAIN  61  58  90 SW14      29.72R
6HR MIN TEMP:  55; 6HR MAX TEMP:  61; 6HR PCP:  1.63;

WASHINGTON +   CLOUDY    60  58  93 SW17G26   29.70R
6HR MIN TEMP:  54; 6HR MAX TEMP:  60; 6HR PCP:  1.39;


$$

INZ062-063-066-070>080-084-089>092-250700-
SOUTH CENTRAL AND SOUTHEAST INDIANA

CITY           SKY/WX    TMP DP  RH WIND       PRES   REMARKS
BATESVILLE +   CLOUDY    52  52 100 MISG      29.68R
BEDFORD +      CLOUDY    57  55  94 S15       29.67S
BLOOMINGTON    LGT RAIN  57  56  96 SW12      29.65R FOG
6HR MIN TEMP:  52; 6HR MAX TEMP:  57; 6HR PCP:  0.91;

FRENCH LICK *+ CLOUDY    59 N/A N/A SW13G21   29.71R
MADISON *+     CLOUDY    55  55 100 SE13      29.71F
NORTH VERNON + CLOUDY    54  54 100 S13G18    29.70R
SEYMOUR +      CLOUDY    57  57 100 S13G18    29.67F

$$





USA.gov is the U.S. government's official web portal to all federal, state and local government web resources and services.